Location: D�pe
(52.6057°N, 8.1808°E)
Time: 14:56:58
(UTC+00:00)

ADEOS Rocket - Pass Details

Date: 29 October 2020
Orbit: 859 x 1306 km, 98.7° (Epoch: 28 November)

Event Time Altitude Azimuth Distance (km) Brightness Sun altitude
Rises 16:41:06 0° 15° (NNE) 3,711 5.7 -6.5°
Reaches altitude 10° 16:43:29 10° 16° (NNE) 2,814 5.1 -6.8°
Maximum altitude 16:49:53 89° 103° (ESE) 1,108 3.3 -7.8°
Drops below altitude 10° 16:57:01 10° 197° (SSW) 3,111 6.0 -8.8°
Sets 16:59:45 0° 198° (SSW) 4,126 6.7 -9.2°
